Regional Weather Roundup
Issued by NWS

Home | Current Version | Previous Version | Graphics & Text | Print | Product List | Glossary On
Versions: 1 2 3 4 5 6 7 8 9 10 11 12 13 14 15 16 17 18 19 20 21 22 23 24 25 26 27 28 29 30 31 32 33 34 35 36 37 38 39 40 41 42 43 44 45 46 47 48 49 50
758
ASUS45 KBOI 131210
RWRID

IDAHO REGIONAL WEATHER ROUNDUP
NATIONAL WEATHER SERVICE BOISE ID
500 AM MST SAT FEB 13 2016

NOTE: "FAIR" INDICATES FEW OR NO CLOUDS BELOW 12000 FEET
WITH NO SIGNIFICANT WEATHER AND/OR OBSTRUCTIONS TO VISIBILITY

IDZ012-014-131300-
SOUTHWEST IDAHO


CITY           SKY/WX    TMP DP  RH WIND       PRES   REMARKS
BOISE          PTCLDY    32  31  96 CALM      30.23R FOG
CALDWELL       CLOUDY    32  31  96 W3        30.26R FOG
MOUNTAIN HOME  CLEAR     32  28  87 N5        30.22R WCI  27
$$

IDZ016-017-131300-
SOUTHCENTRAL IDAHO


CITY           SKY/WX    TMP DP  RH WIND       PRES   REMARKS
BURLEY         CLOUDY    29  28  96 CALM      30.15S
JEROME         MOCLDY    34  26  72 E6        30.17R WCI  29
TWIN FALLS     MOCLDY    44  26  49 S16       30.16S
$$

IDZ019>023-131300-
SOUTHEAST IDAHO


CITY           SKY/WX    TMP DP  RH WIND       PRES   REMARKS
IDAHO FALLS    CLOUDY    21  18  88 W5        30.17F WCI  15
POCATELLO      CLOUDY    27  21  78 N3        30.17F
REXBURG        CLOUDY    26  23  88 NW3       30.15F FOG
$$

IDZ006-010-011-018-031-032-131300-
CENTRAL IDAHO MOUNTAINS


CITY           SKY/WX    TMP DP  RH WIND       PRES   REMARKS
MCCALL         LGT SNOW  33  29  85 NW5       30.14R FOG     WCI  29
HAILEY         CLEAR     30  28  93 CALM      30.17F
STANLEY          N/A     41  26  55 S3        30.13S
SALMON         CLOUDY    25  23  93 SE7       30.07F WCI  17
CHALLIS        PTCLDY    19  17  92 VRB3      30.08F
$$

IDZ002-004-006-007-026-131300-
NORTHERN IDAHO


CITY           SKY/WX    TMP DP  RH WIND       PRES   REMARKS
LEWISTON       MOCLDY    42  36  79 S8        30.19R
LOWELL           N/A     39  37  92 N3        30.23S
COEUR D`ALENE  CLOUDY    43  37  81 W6        30.09R
MULLAN PASS    SNOW      28  27  96 MISG      30.02R VSB 1/2
$$




USA.gov is the U.S. government's official web portal to all federal, state and local government web resources and services.